Weather in Pyrgos Kallistis

Greece     36°23′03″N   25°26′45″E
temp.,
°C
wind,
m/s
gust,
m/s
humid.,
%
clouds,
%
prec.,
mm/h
press.,
hPa
HPBL,
m
8 march, mon
mon823:00+13n78670 0.0 1020676
02:00+13n66640 0.0 1020714
05:00+13nne55620 0.0 1019790
08:00+13n336225 0.0 1019767
11:00+13n336667 0.0 1019655
14:00+13n226583 0.0 1017535
17:00+13ene3367100 0.0 1017558
20:00+13ene4471100 0.0 1016457
9 march, tue
tue923:00+14ene3367100 0.0 1016470
02:00+14ene4466100 0.0 1015488
05:00+14ene7868100 0.0 1014596
08:00+14ene81069100 0.0 1014585
11:00+15ene786481 0.0 1014586
14:00+15ene886540 0.0 1014556
17:00+15ne88650 0.0 1013601
20:00+15ne78640 0.0 1014592
10 march, wed
wed1023:00+16ne666399 0.0 1014604
02:00+16ne666380 0.0 1013696
05:00+16ene447234 0.0 1012721
08:00+16e447441 0.1 1013573
11:00+16ene347570 0.3 1013427
14:00+16ne237443 0.5 1012453
17:00+16nnw32740 0.0 1012344
20:00+16wsw337543 0.0 1013391
11 march, thu
thu1123:00+15wsw5675100 0.0 1013523
02:00+16wsw458197 0.0 1013400
05:00+16w568198 0.0 1012392
08:00+16w898299 0.1 1012576
11:00+16w910810 0.0 1013747
14:00+16w1012793 0.0 1012819
17:00+15n1213745 1.6 1013940
20:00+14n14167339 1.7 10161347
12 march, fri
fri1223:00+13n13157243 0.1 10201309
02:00+12n12146622 0.1 10211067
05:00+12n1113630 0.0 10211137
08:00+12n1012590 0.0 10221085
11:00+12n910550 0.0 1023962
14:00+13n89550 0.0 1021898
17:00+13n88580 0.0 1021798
20:00+13nnw66580 0.0 1021726